Location: Bercimuel
(41.3983°N, 3.5711°W)
Time: 22:38:02
(UTC+00:00)

DELTA 2 R/B (1) - Pass Details

Date: 15 May 2026
Orbit: 787 x 800 km, 39.6° (Epoch: 10 June)

Event Time Altitude Azimuth Distance (km) Brightness Sun altitude
Rises 22:27:24 0° 278° (W) 3,288 7.2 -25.0°
Reaches altitude 10° 22:29:57 10° 273° (W) 2,355 6.4 -25.2°
Enters shadow 22:34:21 45° 230° (SW) 1,072 4.1 -25.6°
